When you browse on this site, cookies collect data to enhance your experience and personalize the content and advertising you see.
Visit our Privacy Policy to learn more. By continuing to use the site, you agree to this use of cookies and data.
  • In United Kingdom
  • List of Countries
  • For 7 days
  • Water Temperature
  • Weather Map
  • Weather Widgets
  • user-avatar
    Login

    Hourly Weather Covasna

    Today, 15 September, Sunday

    Time Temperature Precipitation Wind Pressure Humidity
    00:00 +12°C° 0 mm 2 mps 712 mmHg 74%
    01:00 +11°C° 0 mm 1 mps 712 mmHg 76%
    02:00 +10°C° 0 mm 1 mps 712 mmHg 79%
    03:00 +10°C° 0 mm 1 mps 712 mmHg 79%
    04:00 +9°C° 0 mm 1 mps 711 mmHg 80%
    05:00 +9°C° 0 mm 1 mps 711 mmHg 80%
    06:00 +11°C° 0 mm 1 mps 712 mmHg 74%
    07:00 +13°C° 0 mm 1 mps 712 mmHg 67%
    08:00 +14°C° 0 mm 0 mps 712 mmHg 60%
    09:00 +18°C° 0 mm 1 mps 712 mmHg 56%
    10:00 +20°C° 0 mm 1 mps 712 mmHg 51%
    11:00 +21°C° 0 mm 2 mps 712 mmHg 46%
    12:00 +23°C° 0 mm 2 mps 712 mmHg 43%
    13:00 +24°C° 0 mm 2 mps 712 mmHg 39%
    14:00 +25°C° 0 mm 3 mps 711 mmHg 36%
    15:00 +24°C° 0 mm 3 mps 711 mmHg 37%
    16:00 +24°C° 0 mm 3 mps 710 mmHg 38%
    17:00 +24°C° 0 mm 3 mps 710 mmHg 38%
    18:00 +20°C° 0 mm 2 mps 709 mmHg 46%
    19:00 +18°C° 0 mm 1 mps 709 mmHg 53%
    20:00 +14°C° 0 mm 1 mps 709 mmHg 60%
    21:00 +14°C° 0 mm 1 mps 708 mmHg 61%
    22:00 +13°C° 0 mm 1 mps 708 mmHg 61%
    23:00 +13°C° 0 mm 1 mps 707 mmHg 62%

    Tomorrow, 16 September, Monday

    Time Temperature Precipitation Wind Pressure Humidity
    00:00 +12°C° 0 mm 1 mps 707 mmHg 63%
    01:00 +12°C° 0 mm 1 mps 707 mmHg 64%
    02:00 +12°C° 0 mm 1 mps 707 mmHg 65%
    03:00 +11°C° 0 mm 1 mps 706 mmHg 66%
    04:00 +11°C° 0 mm 1 mps 706 mmHg 67%
    05:00 +11°C° 0 mm 1 mps 706 mmHg 68%
    06:00 +13°C° 0 mm 1 mps 706 mmHg 62%
    07:00 +14°C° 0 mm 1 mps 706 mmHg 56%
    08:00 +16°C° 0 mm 1 mps 706 mmHg 50%
    09:00 +18°C° 0 mm 2 mps 706 mmHg 44%
    10:00 +20°C° 0 mm 2 mps 706 mmHg 38%
    11:00 +23°C° 0 mm 2 mps 706 mmHg 32%
    12:00 +24°C° 0 mm 3 mps 706 mmHg 30%
    13:00 +25°C° 0 mm 3 mps 706 mmHg 28%
    14:00 +26°C° 0 mm 4 mps 705 mmHg 27%
    15:00 +26°C° 0 mm 3 mps 705 mmHg 29%
    16:00 +25°C° 0 mm 3 mps 704 mmHg 31%
    17:00 +25°C° 0 mm 3 mps 704 mmHg 33%
    18:00 +21°C° 0 mm 3 mps 704 mmHg 40%
    19:00 +18°C° 0 mm 2 mps 703 mmHg 46%
    20:00 +15°C° 0 mm 1 mps 703 mmHg 53%
    21:00 +15°C° 0 mm 1 mps 703 mmHg 55%
    22:00 +14°C° 0 mm 1 mps 703 mmHg 56%
    23:00 +14°C° 0 mm 1 mps 703 mmHg 58%

    Day after tomorrow, 17 September, Tuesday

    Time Temperature Precipitation Wind Pressure Humidity
    00:00 +14°C° 0 mm 1 mps 702 mmHg 59%
    01:00 +13°C° 0 mm 1 mps 702 mmHg 60%
    02:00 +13°C° 0 mm 1 mps 702 mmHg 61%
    03:00 +13°C° 0 mm 1 mps 702 mmHg 63%
    04:00 +13°C° 0 mm 1 mps 702 mmHg 64%
    05:00 +13°C° 0 mm 1 mps 701 mmHg 66%
    06:00 +14°C° 0 mm 1 mps 702 mmHg 62%
    07:00 +16°C° 0 mm 1 mps 702 mmHg 58%
    08:00 +17°C° 0 mm 2 mps 702 mmHg 54%
    09:00 +18°C° 0 mm 2 mps 702 mmHg 55%
    10:00 +19°C° 0 mm 2 mps 702 mmHg 55%
    11:00 +19°C° 0 mm 2 mps 702 mmHg 56%
    12:00 +21°C° 0 mm 3 mps 702 mmHg 52%
    13:00 +23°C° 0 mm 4 mps 702 mmHg 48%
    14:00 +25°C° 0 mm 5 mps 702 mmHg 43%
    15:00 +25°C° 0 mm 4 mps 702 mmHg 44%
    16:00 +23°C° 0 mm 4 mps 701 mmHg 46%
    17:00 +22°C° 0 mm 3 mps 701 mmHg 47%
    18:00 +20°C° 0 mm 3 mps 701 mmHg 56%
    19:00 +18°C° 0 mm 2 mps 701 mmHg 64%
    20:00 +16°C° 0 mm 1 mps 701 mmHg 73%
    21:00 +15°C° 0 mm 2 mps 701 mmHg 72%
    22:00 +15°C° 0 mm 2 mps 701 mmHg 70%
    23:00 +14°C° 0 mm 3 mps 701 mmHg 69%

    18 September, Wednesday

    Time Temperature Precipitation Wind Pressure Humidity
    00:00 +14°C° 0 mm 2 mps 701 mmHg 71%
    01:00 +14°C° 0 mm 2 mps 701 mmHg 73%
    02:00 +13°C° 0 mm 2 mps 701 mmHg 75%
    03:00 +13°C° 0 mm 2 mps 701 mmHg 75%
    04:00 +13°C° 0 mm 2 mps 701 mmHg 75%
    05:00 +13°C° 0 mm 2 mps 701 mmHg 75%
    06:00 +13°C° 0 mm 2 mps 701 mmHg 73%
    07:00 +13°C° 0 mm 3 mps 702 mmHg 72%
    08:00 +14°C° 0 mm 3 mps 702 mmHg 71%
    09:00 +15°C° 0 mm 4 mps 703 mmHg 63%
    10:00 +16°C° 0 mm 5 mps 703 mmHg 54%
    11:00 +17°C° 0 mm 6 mps 704 mmHg 46%
    12:00 +17°C° 0 mm 6 mps 704 mmHg 43%
    13:00 +17°C° 0 mm 6 mps 704 mmHg 40%
    14:00 +19°C° 0 mm 5 mps 704 mmHg 37%
    15:00 +17°C° 0 mm 5 mps 704 mmHg 37%
    16:00 +18°C° 0 mm 4 mps 704 mmHg 38%
    17:00 +18°C° 0 mm 4 mps 704 mmHg 38%
    18:00 +16°C° 0 mm 3 mps 704 mmHg 44%
    19:00 +13°C° 0 mm 2 mps 704 mmHg 49%
    20:00 +11°C° 0 mm 1 mps 705 mmHg 55%
    21:00 +11°C° 0 mm 1 mps 705 mmHg 57%
    22:00 +9°C° 0 mm 0 mps 705 mmHg 59%
    23:00 +8°C° 0 mm 0 mps 706 mmHg 61%

    19 September, Thursday

    Time Temperature Precipitation Wind Pressure Humidity
    00:00 +8°C° 0 mm 0 mps 706 mmHg 63%
    01:00 +9°C° 0 mm 1 mps 706 mmHg 65%
    02:00 +8°C° 0 mm 1 mps 706 mmHg 67%
    03:00 +8°C° 0 mm 1 mps 706 mmHg 70%
    04:00 +7°C° 0 mm 1 mps 706 mmHg 73%
    05:00 +6°C° 0 mm 0 mps 706 mmHg 76%
    06:00 +7°C° 0 mm 0 mps 706 mmHg 71%
    07:00 +8°C° 0 mm 0 mps 706 mmHg 66%
    08:00 +9°C° 0 mm 0 mps 706 mmHg 61%
    09:00 +12°C° 0 mm 1 mps 707 mmHg 53%
    10:00 +14°C° 0 mm 1 mps 707 mmHg 45%
    11:00 +15°C° 0 mm 2 mps 707 mmHg 36%
    12:00 +16°C° 0 mm 2 mps 707 mmHg 33%
    13:00 +17°C° 0 mm 3 mps 707 mmHg 30%
    14:00 +17°C° 0 mm 3 mps 707 mmHg 26%
    15:00 +17°C° 0 mm 3 mps 706 mmHg 28%
    16:00 +16°C° 0 mm 3 mps 706 mmHg 30%
    17:00 +15°C° 0 mm 2 mps 706 mmHg 31%
    18:00 +13°C° 0 mm 2 mps 706 mmHg 39%
    19:00 +9°C° 0 mm 2 mps 706 mmHg 47%
    20:00 +8°C° 0 mm 1 mps 706 mmHg 55%
    21:00 +8°C° 0 mm 1 mps 707 mmHg 58%
    22:00 +7°C° 0 mm 1 mps 707 mmHg 61%
    23:00 +7°C° 0 mm 1 mps 707 mmHg 64%

    20 September, Friday

    Time Temperature Precipitation Wind Pressure Humidity
    00:00 +6°C° 0 mm 1 mps 707 mmHg 68%
    01:00 +5°C° 0 mm 1 mps 707 mmHg 71%
    02:00 +5°C° 0 mm 1 mps 707 mmHg 75%
    03:00 +4°C° 0 mm 1 mps 707 mmHg 75%
    04:00 +4°C° 0 mm 1 mps 706 mmHg 76%
    05:00 +2°C° 0 mm 0 mps 706 mmHg 77%
    06:00 +5°C° 0 mm 1 mps 707 mmHg 70%
    07:00 +7°C° 0 mm 1 mps 707 mmHg 62%
    08:00 +9°C° 0 mm 1 mps 707 mmHg 54%
    09:00 +9°C° 0 mm 2 mps 707 mmHg 50%
    10:00 +12°C° 0 mm 2 mps 708 mmHg 45%
    11:00 +12°C° 0 mm 3 mps 708 mmHg 41%
    12:00 +12°C° 0.2 mm 4 mps 708 mmHg 39%
    13:00 +13°C° 0.2 mm 5 mps 707 mmHg 38%
    14:00 +13°C° 0.2 mm 5 mps 707 mmHg 37%
    15:00 +12°C° 0.2 mm 5 mps 707 mmHg 43%
    16:00 +10°C° 0.2 mm 5 mps 707 mmHg 49%
    17:00 +10°C° 0.2 mm 4 mps 707 mmHg 55%
    18:00 +8°C° 0 mm 3 mps 708 mmHg 65%
    19:00 +5°C° 0 mm 2 mps 708 mmHg 74%
    20:00 +4°C° 0 mm 1 mps 709 mmHg 84%
    21:00 +4°C° 0 mm 1 mps 709 mmHg 84%
    22:00 +3°C° 0 mm 1 mps 709 mmHg 84%
    23:00 +2°C° 0 mm 1 mps 709 mmHg 84%
    Show more